Theta_e
336 337 335 334 331 333 332 331 328 327 327 325 322 320 319 320 324 328 330 331 331 331 330 330 330 331 333 332 332 333 330 328 329 330 331 332 332 333 331 330 330 328 327
336 336 334 333 330 331 331 331 330 328 328 326 323 322 321 319 320 323 326 328 330 331 330 330 329 330 330 329 331 332 328 327 329 330 331 332 333 332 332 333 332 329 328
338 335 334 331 330 330 330 330 330 329 329 327 325 324 324 323 320 321 323 325 327 329 330 330 330 330 329 331 333 331 327 326 329 331 331 332 332 334 333 332 332 330 328
337 335 334 332 331 331 331 331 331 330 329 329 328 325 326 326 325 322 322 323 325 327 329 330 329 329 330 330 330 329 327 326 330 335 332 331 331 333 334 335 331 330 328
338 337 336 334 333 332 332 332 332 331 330 330 329 328 327 327 327 327 325 323 323 325 326 327 328 328 329 329 329 329 328 326 327 334 334 333 332 332 333 335 331 330 329
342 340 338 337 336 334 333 333 332 332 331 331 330 330 330 329 329 329 329 328 327 325 324 325 326 327 328 329 329 329 329 328 326 329 334 334 334 334 331 332 334 330 330
338 341 341 337 337 337 336 335 335 334 334 333 333 333 333 333 332 331 331 330 330 330 328 326 325 325 327 329 328 329 329 329 328 327 329 335 335 335 332 332 334 332 329
333 337 337 337 337 338 338 338 338 337 337 337 336 335 335 335 335 334 334 334 333 332 332 331 330 327 325 326 328 328 329 329 328 327 327 331 335 334 334 332 331 331 331
334 335 337 338 338 338 338 338 338 339 339 339 338 338 337 336 335 335 335 336 336 336 335 334 333 332 331 328 326 328 328 329 328 328 327 328 333 334 335 335 333 331 331
340 339 339 340 339 339 342 341 340 340 340 339 339 339 339 338 338 337 336 335 335 335 336 337 336 335 334 333 331 328 328 329 328 328 327 327 336 336 334 335 334 333 331
339 340 340 340 341 340 339 340 342 341 341 339 339 339 339 339 339 338 338 337 336 336 335 335 335 336 335 335 335 333 331 329 328 328 328 328 330 336 335 334 332 332 331
334 333 335 338 340 341 341 341 341 341 340 341 340 340 342 340 339 339 341 341 339 338 337 336 336 335 335 335 335 335 333 333 329 328 328 328 328 332 336 334 334 333 331
322 319 318 318 319 327 336 340 342 341 339 340 340 338 332 338 337 339 339 338 341 339 339 338 335 335 335 335 335 334 333 334 333 331 327 328 328 327 332 336 334 333 333
318 316 315 314 314 314 315 319 335 339 335 333 335 334 335 335 334 334 335 335 334 333 335 335 335 334 333 333 334 335 334 334 333 333 329 325 326 327 326 332 334 334 333
316 314 314 313 313 313 316 318 320 328 333 332 333 334 332 332 333 333 332 331 327 326 326 328 329 331 332 331 330 331 331 330 327 327 327 325 322 324 328 331 333 335 333
314 314 313 312 312 313 315 317 319 321 323 326 328 328 328 328 328 326 325 324 325 325 324 322 324 326 326 326 330 332 332 331 325 324 328 327 323 324 331 331 334 335 334
314 313 312 313 314 315 317 317 318 319 319 320 320 320 321 320 320 320 321 322 322 323 323 324 324 325 326 327 326 331 331 328 322 321 324 325 324 326 330 330 333 335 334
313 313 314 314 316 316 317 317 317 317 316 315 313 312 311 310 309 309 308 309 311 312 313 316 318 322 324 325 326 326 327 327 322 322 324 326 324 325 329 328 332 333 332
312 312 313 313 313 314 314 314 313 312 311 311 311 311 310 310 309 309 309 309 307 306 306 307 308 310 312 314 317 320 322 326 324 323 326 326 326 327 330 328 329 327 331
312 312 312 311 311 311 311 311 310 310 310 309 305 302 302 302 302 302 302 302 303 305 307 307 306 304 306 308 310 312 313 314 322 323 324 326 326 326 328 329 327 326 330
312 312 311 311 310 309 310 310 309 308 304 302 301 301 301 301 302 302 302 302 302 302 302 302 303 307 306 304 305 308 310 311 312 313 323 326 326 325 325 327 329 331 330
311 310 309 308 308 308 308 307 304 302 301 301 301 301 301 301 301 302 302 302 303 303 303 302 302 302 302 305 304 304 307 311 311 312 313 316 326 329 329 329 328 327 328
310 309 307 302 301 301 301 301 302 301 301 301 301 301 301 301 302 302 302 303 303 303 303 303 302 302 301 301 301 303 306 308 310 312 314 319 320 322 324 325 327 328 328
309 308 303 301 301 301 301 301 301 301 301 301 301 301 301 301 301 301 301 301 301 300 300 301 301 301 301 300 299 300 300 300 303 306 310 312 314 317 321 324 325 325 324
308 305 301 301 301 301 301 301 301 301 301 301 300 300 300 300 300 300 299 299 299 298 298 297 297 298 298 296 294 295 297 299 301 300 302 306 309 308 309 312 314 317 319
306 304 302 301 301 301 300 301 301 301 300 300 299 299 300 299 299 298 298 298 298 297 297 296 295 293 294 293 292 292 293 293 295 295 296 298 298 301 303 305 306 306 307
Wind_Speed
21 18 16 14 13 13 11 11 10 10 9 8 8 9 10 9 7 6 6 6 6 6 5 4 4 4 3 1 0 1 2 3 3 2 1 1 4 7 9 10 10 11 11
17 17 14 12 12 11 10 9 9 8 7 7 6 7 7 7 7 7 5 5 5 5 5 5 4 3 3 2 2 1 2 3 2 1 1 2 4 7 9 10 9 10 11
20 16 13 12 11 10 9 9 9 7 7 6 5 4 4 4 4 4 4 4 4 5 5 6 5 4 4 3 3 2 3 3 3 1 2 3 4 6 8 9 9 9 10
16 13 12 10 10 9 8 8 8 7 7 6 5 3 2 1 1 2 2 3 4 6 7 8 7 6 5 5 5 3 4 3 2 2 2 4 5 7 6 7 9 9 10
12 10 9 8 7 7 7 7 7 7 6 6 5 5 5 4 4 3 2 3 5 6 8 9 10 9 8 8 7 6 6 5 4 4 3 3 4 7 8 8 9 10 11
10 8 7 7 7 7 7 7 7 7 7 7 7 7 7 7 7 7 7 6 7 7 8 10 11 11 11 10 10 8 8 8 6 7 7 7 9 8 9 9 10 11 11
12 11 11 11 9 7 6 5 5 5 6 6 7 8 9 10 11 11 11 11 11 11 11 11 12 12 13 13 13 12 10 10 9 9 9 10 8 12 11 13 13 12 13
11 11 12 10 10 9 7 6 3 4 5 6 7 8 10 11 12 13 14 14 15 15 15 14 14 15 14 15 15 15 13 12 12 11 11 12 13 15 13 13 14 13 13
11 11 10 9 8 8 8 7 7 7 7 8 8 9 9 10 12 13 14 15 16 17 18 18 18 18 18 18 15 15 15 15 15 13 13 13 14 14 16 14 15 15 15
11 10 8 7 7 8 7 8 9 9 10 10 11 11 11 11 12 13 14 15 17 18 18 18 21 22 22 22 20 19 17 16 16 16 15 15 16 15 20 17 16 17 17
7 5 4 4 3 3 4 5 5 8 9 9 11 12 12 14 15 15 16 16 18 19 20 21 21 21 23 24 23 22 20 18 18 18 18 17 17 15 19 18 17 18 19
7 4 2 3 4 5 5 5 8 11 14 14 12 11 8 11 14 14 14 15 16 19 20 21 22 24 26 26 23 23 23 22 22 22 21 19 19 20 20 20 21 19 20
2 2 3 6 7 8 9 10 10 10 11 14 15 16 11 11 13 13 12 13 15 17 17 19 20 22 23 25 26 29 27 30 27 25 22 21 21 23 25 25 23 23 22
1 4 8 9 9 8 9 10 12 13 14 15 12 9 7 9 10 12 14 16 21 20 20 20 20 20 22 23 20 25 26 31 30 24 24 24 23 27 29 31 27 26 26
4 5 8 11 13 11 7 5 6 8 11 16 16 19 19 15 16 17 18 20 23 19 19 20 20 20 22 22 19 18 19 16 23 19 29 33 32 34 30 32 30 29 29
5 5 6 8 9 9 7 5 3 4 6 10 15 19 21 21 20 19 18 18 19 19 18 19 17 17 20 17 14 13 16 15 20 24 31 39 41 34 32 35 32 31 28
6 5 5 5 4 4 4 3 3 3 5 6 7 8 10 11 11 12 13 14 16 17 16 16 18 18 17 16 15 15 17 20 22 25 33 37 40 36 33 33 34 32 30
4 2 3 2 2 2 2 1 2 3 4 5 6 8 9 11 12 12 12 13 13 13 13 13 14 13 15 15 16 18 20 22 24 26 30 36 52 40 33 33 32 33 31
6 5 4 4 4 4 3 2 2 3 5 7 8 9 11 12 14 15 16 17 16 15 15 15 14 16 15 16 17 17 19 23 26 22 22 33 41 38 32 34 30 31 35
9 8 7 8 7 6 4 3 2 4 6 8 9 11 12 13 14 15 16 17 19 20 20 17 16 15 17 19 20 20 20 21 24 24 23 24 27 36 35 32 33 37 37
11 9 9 9 9 8 6 3 3 3 2 4 7 9 11 13 14 16 18 19 20 22 23 22 21 20 17 18 21 22 23 22 23 25 25 23 24 27 38 41 38 37 37
11 10 8 9 10 10 8 6 4 1 2 5 7 9 12 14 15 16 17 18 19 19 19 21 22 22 19 17 15 17 17 19 21 23 24 24 26 27 27 27 30 35 33
10 8 8 10 11 11 10 7 4 2 3 5 7 10 13 16 17 18 18 18 18 18 18 17 16 16 18 14 11 8 6 6 18 19 18 18 19 23 28 28 26 26 27
11 9 9 10 9 8 7 5 5 2 2 7 11 13 14 15 16 17 17 17 17 16 15 14 14 14 13 13 6 10 9 12 8 19 23 19 21 20 21 22 26 22 20
10 10 10 8 7 6 6 5 3 2 5 7 9 11 13 14 15 16 17 17 17 16 15 13 11 10 11 11 11 12 12 16 16 17 28 35 34 28 25 27 25 25 25
12 9 6 6 7 5 4 3 2 2 4 6 7 9 12 13 13 14 16 16 16 16 16 14 14 12 10 9 11 10 11 8 12 13 24 39 38 40 34 33 32 30 28
Wind_Direction
169 171 166 160 158 157 156 152 148 144 130 116 102 99 101 112 125 139 151 157 158 158 164 176 183 175 175 188 27 47 1 349 337 350 343 166 156 159 156 151 153 151 147
179 169 164 159 161 159 158 159 157 151 140 126 110 100 98 107 126 140 150 154 161 171 179 186 187 181 198 228 227 258 315 317 328 344 202 189 176 168 162 155 158 156 154
172 166 159 162 166 162 162 164 165 160 156 145 134 113 96 93 105 127 149 168 185 203 207 210 214 214 227 234 224 245 279 294 318 307 213 207 194 178 170 163 165 167 165
170 159 160 163 169 166 164 167 169 169 173 173 170 168 157 146 122 128 161 194 207 218 225 230 232 229 221 226 232 231 246 264 287 192 195 206 201 188 196 183 181 181 179
154 158 158 167 175 170 172 173 179 186 189 196 205 208 216 227 237 239 232 233 233 234 241 243 244 239 232 232 236 230 243 254 256 227 204 219 230 208 219 222 196 193 190
128 156 177 180 186 184 187 189 195 200 207 215 225 234 238 244 247 252 253 252 254 253 253 254 253 251 243 237 239 241 242 250 249 248 233 246 242 230 239 220 210 205 202
145 156 167 172 176 182 201 214 215 219 228 235 242 250 252 251 253 254 257 259 260 261 260 263 265 261 252 247 244 247 243 248 250 249 246 241 256 248 240 224 222 215 211
141 149 156 166 179 188 195 193 219 261 270 270 267 261 258 258 258 257 256 258 260 262 265 265 269 271 266 260 256 255 252 254 253 250 249 248 254 245 239 230 230 229 222
153 151 156 167 182 193 197 195 194 201 222 237 244 254 263 267 266 265 262 262 264 267 268 268 266 266 268 269 264 261 258 256 256 255 251 254 245 240 233 235 235 236 230
160 162 166 173 188 188 188 196 201 207 223 231 237 241 240 244 252 255 260 259 257 260 266 271 271 270 268 267 268 269 265 258 257 257 254 251 241 260 238 240 241 233 232
160 164 172 186 218 264 230 228 235 243 250 255 252 254 253 252 252 254 256 258 260 261 262 261 261 264 268 270 270 267 264 264 264 260 255 248 244 256 240 240 241 236 237
161 165 224 274 290 294 296 265 249 259 271 273 261 253 266 272 267 269 268 268 270 268 268 266 267 266 265 263 263 263 262 259 254 252 252 249 246 237 241 243 248 244 241
132 22 334 317 305 292 283 282 283 273 281 280 266 262 273 260 261 258 268 274 278 273 278 275 274 275 273 269 263 258 262 257 250 252 257 259 250 246 238 239 239 244 245
300 328 327 315 302 294 288 278 270 266 277 291 292 293 289 273 265 266 271 277 278 283 278 281 281 282 284 285 284 268 254 255 258 266 268 252 256 243 242 238 237 236 240
267 298 309 311 308 308 310 301 283 273 268 270 270 273 280 284 282 281 283 285 292 290 287 284 286 287 289 290 285 283 281 282 270 244 260 252 244 245 242 235 238 239 236
216 263 278 280 283 291 304 319 326 309 287 281 275 276 282 296 294 296 294 290 287 290 294 291 295 296 295 296 290 274 273 262 263 261 232 250 232 240 239 235 234 235 231
220 231 240 248 258 272 288 310 327 323 322 317 317 315 314 315 314 311 307 303 300 299 297 291 291 293 291 286 281 264 259 263 262 261 246 239 227 236 245 234 235 232 229
210 160 149 162 197 230 241 258 314 329 329 335 339 339 337 337 335 332 324 314 309 304 299 294 293 289 286 283 277 268 261 260 262 267 255 242 234 256 238 237 237 235 234
186 178 183 177 200 209 224 247 312 337 338 343 343 336 334 330 326 323 321 320 319 315 309 303 296 291 282 276 274 273 271 257 260 268 253 243 248 243 236 238 232 243 240
182 181 180 173 189 213 221 243 296 327 333 337 343 350 351 344 338 331 325 320 316 312 308 304 302 299 293 285 278 272 267 265 260 265 267 266 259 238 238 247 248 244 242
175 180 175 178 185 206 220 226 271 306 354 0 358 355 349 342 337 331 324 319 314 310 312 312 306 295 292 289 288 278 270 267 261 260 260 260 254 250 246 253 251 254 260
185 174 170 179 178 190 206 201 184 118 11 4 2 355 348 345 342 337 331 325 319 313 307 304 301 301 300 297 297 295 290 268 258 256 260 255 250 251 253 254 251 256 259
182 169 160 160 157 162 162 157 138 82 17 4 354 356 353 349 347 345 342 337 331 324 317 311 301 296 296 295 295 281 303 290 279 255 245 243 243 244 245 248 249 246 246
180 167 159 159 159 151 140 146 123 114 3 1 357 354 356 353 354 355 356 352 345 339 329 321 310 301 291 292 278 240 252 268 307 293 256 242 241 240 241 241 243 245 247
173 174 170 166 163 152 151 155 111 25 9 358 351 349 355 360 2 5 7 7 4 0 355 348 333 316 307 301 306 295 266 254 260 273 285 277 259 259 262 259 257 252 252
173 175 173 184 189 175 174 160 122 35 12 357 354 353 359 4 8 11 13 16 18 18 14 13 11 360 347 322 299 300 297 299 279 286 287 283 292 290 279 274 276 276 273